�������l�o���
Date,Time,MP-1(��Sv/h),MP-2(��Sv/h),MP-3(��Sv/h),MP-4(��Sv/h),MP-5(��Sv/h),MP-6(��Sv/h),MP-7(��Sv/h),MP-8(��Sv/h),����,����(m/s),���J
2022/09/08,00:00,0.580,0.814,0.520,1.005,0.712,0.336,0.582,0.549,�k,4.9,�L
2022/09/08,00:10,0.578,0.816,0.521,1.002,0.712,0.337,0.580,0.549,�k,5.2,�L
2022/09/08,00:20,0.579,0.816,0.521,1.003,0.714,0.336,0.582,0.548,�k,5.7,�L
2022/09/08,00:30,0.580,0.814,0.519,1.000,0.711,0.336,0.579,0.549,�k,5.7,�L
2022/09/08,00:40,0.577,0.814,0.520,0.999,0.712,0.336,0.580,0.549,�k,4.9,�L
2022/09/08,00:50,0.580,0.816,0.519,0.999,0.711,0.335,0.581,0.548,�k�k��,4.7,�L
2022/09/08,01:00,0.578,0.815,0.519,0.996,0.711,0.336,0.581,0.547,�k,3.8,�L
2022/09/08,01:10,0.579,0.815,0.518,0.998,0.712,0.334,0.582,0.548,�k,4.0,�L
2022/09/08,01:20,0.578,0.814,0.518,0.999,0.711,0.335,0.582,0.548,�k,4.4,�L
2022/09/08,01:30,0.580,0.814,0.519,0.997,0.711,0.334,0.581,0.548,�k,4.6,�L
2022/09/08,01:40,0.578,0.814,0.518,1.000,0.710,0.337,0.581,0.549,�k,3.7,�L
2022/09/08,01:50,0.578,0.813,0.519,0.998,0.712,0.334,0.580,0.548,�k,3.7,�L
2022/09/08,02:00,0.578,0.816,0.519,0.998,0.710,0.336,0.580,0.547,�k�k��,3.3,�L
2022/09/08,02:10,0.578,0.815,0.521,0.998,0.709,0.336,0.580,0.549,�k,3.4,�L
2022/09/08,02:20,0.578,0.813,0.520,0.997,0.710,0.336,0.579,0.547,�k,3.6,�L
2022/09/08,02:30,0.575,0.816,0.520,0.996,0.710,0.336,0.581,0.549,�k,3.1,�L
2022/09/08,02:40,0.577,0.813,0.520,0.995,0.711,0.336,0.580,0.548,�k�k��,3.9,�L
2022/09/08,02:50,0.577,0.813,0.520,0.992,0.710,0.336,0.580,0.547,�k,3.5,�L
2022/09/08,03:00,0.578,0.813,0.520,0.995,0.710,0.335,0.581,0.547,�k,4.3,�L
2022/09/08,03:10,0.577,0.814,0.519,0.994,0.709,0.335,0.578,0.547,�k,3.3,�L
2022/09/08,03:20,0.576,0.812,0.519,0.994,0.709,0.336,0.579,0.546,�k,3.4,�L
2022/09/08,03:30,0.576,0.811,0.519,0.992,0.708,0.335,0.578,0.546,�k,4.3,�L
2022/09/08,03:40,0.576,0.810,0.517,0.992,0.708,0.335,0.580,0.546,�k�k��,3.6,�L
2022/09/08,03:50,0.577,0.808,0.519,0.988,0.707,0.336,0.579,0.545,�k,4.4,�L
2022/09/08,04:00,0.576,0.807,0.516,0.990,0.707,0.335,0.578,0.546,�k,4.7,�L
2022/09/08,04:10,0.575,0.806,0.519,0.988,0.706,0.335,0.576,0.547,�k,5.7,�L
2022/09/08,04:20,0.576,0.807,0.517,0.987,0.705,0.334,0.579,0.546,�k,5.3,�L
2022/09/08,04:30,0.575,0.807,0.518,0.985,0.706,0.335,0.578,0.545,�k,5.0,�L
2022/09/08,04:40,0.575,0.806,0.517,0.984,0.703,0.335,0.577,0.545,�k�k��,4.8,�L
2022/09/08,04:50,0.572,0.805,0.516,0.981,0.705,0.335,0.578,0.545,�k,4.5,�L
2022/09/08,05:00,0.573,0.804,0.515,0.981,0.703,0.334,0.576,0.545,�k�k��,4.9,�L
2022/09/08,05:10,0.573,0.799,0.516,0.980,0.702,0.335,0.578,0.546,�k�k��,5.9,�L
2022/09/08,05:20,0.571,0.800,0.514,0.978,0.701,0.337,0.577,0.545,�k�k��,7.0,�L
2022/09/08,05:30,0.571,0.802,0.515,0.980,0.701,0.336,0.577,0.545,�k�k��,7.9,�L
2022/09/08,05:40,0.572,0.802,0.515,0.979,0.702,0.333,0.578,0.544,�k�k��,7.7,�L
2022/09/08,05:50,0.571,0.795,0.514,0.979,0.701,0.334,0.576,0.546,�k,8.2,�L
2022/09/08,06:00,0.572,0.797,0.514,0.980,0.697,0.333,0.576,0.544,�k�k��,8.3,�L
2022/09/08,06:10,0.572,0.796,0.514,0.977,0.694,0.333,0.577,0.544,�k�k��,8.5,�L
2022/09/08,06:20,0.572,0.800,0.513,0.976,0.695,0.333,0.577,0.545,�k�k��,7.5,�L
2022/09/08,06:30,0.570,0.798,0.514,0.976,0.698,0.333,0.576,0.545,�k,8.6,�L
2022/09/08,06:40,0.571,0.798,0.512,0.978,0.698,0.333,0.577,0.546,�k,8.2,�L
2022/09/08,06:50,0.571,0.800,0.512,0.978,0.698,0.333,0.576,0.545,�k,9.1,�L
2022/09/08,07:00,0.572,0.801,0.512,0.978,0.698,0.332,0.579,0.545,�k,7.8,�L
2022/09/08,07:10,0.569,0.802,0.511,0.979,0.700,0.331,0.578,0.545,�k,8.6,�L
2022/09/08,07:20,0.569,0.803,0.511,0.981,0.699,0.330,0.578,0.545,�k,9.8,��
2022/09/08,07:30,0.570,0.801,0.512,0.981,0.699,0.331,0.578,0.545,�k,7.5,�L
2022/09/08,07:40,0.570,0.801,0.512,0.978,0.700,0.331,0.577,0.544,�k,6.2,�L
2022/09/08,07:50,0.571,0.802,0.511,0.983,0.701,0.329,0.576,0.545,�k,7.7,�L
2022/09/08,08:00,0.570,0.803,0.512,0.982,0.699,0.330,0.577,0.545,�k,6.4,�L
2022/09/08,08:10,0.567,0.801,0.511,0.982,0.699,0.331,0.577,0.546,�k,6.2,�L
2022/09/08,08:20,0.571,0.799,0.511,0.981,0.699,0.331,0.577,0.546,�k,6.1,�L
2022/09/08,08:30,0.569,0.799,0.513,0.983,0.696,0.330,0.573,0.545,�k,7.6,�L
2022/09/08,08:40,0.571,0.796,0.513,0.981,0.694,0.332,0.573,0.544,�k,5.4,�L
2022/09/08,08:50,0.570,0.795,0.513,0.981,0.694,0.331,0.574,0.544,�k,5.2,�L
2022/09/08,09:00,0.570,0.795,0.512,0.982,0.695,0.332,0.574,0.544,�k,5.6,�L
2022/09/08,09:10,0.571,0.795,0.513,0.981,0.695,0.335,0.574,0.543,�k,6.2,�L
2022/09/08,09:20,0.570,0.796,0.512,0.982,0.698,0.333,0.575,0.546,�k,5.9,�L
2022/09/08,09:30,0.570,0.797,0.513,0.980,0.697,0.333,0.574,0.545,�k,5.5,��
2022/09/08,09:40,0.569,0.796,0.511,0.982,0.697,0.332,0.576,0.545,�k,6.1,�L
2022/09/08,09:50,0.569,0.799,0.512,0.981,0.694,0.332,0.575,0.546,�k�k��,5.9,�L
2022/09/08,10:00,0.569,0.798,0.514,0.982,0.697,0.332,0.577,0.545,�k,6.8,�L
2022/09/08,10:10,0.571,0.798,0.515,0.981,0.696,0.330,0.575,0.544,�k,5.5,�L
2022/09/08,10:20,0.569,0.798,0.511,0.981,0.697,0.331,0.577,0.545,�k�k��,6.4,�L
2022/09/08,10:30,0.569,0.796,0.511,0.984,0.697,0.332,0.574,0.546,�k,4.9,�L
2022/09/08,10:40,0.570,0.797,0.512,0.982,0.699,0.330,0.575,0.545,�k,4.1,�L
2022/09/08,10:50,0.569,0.799,0.513,0.984,0.698,0.329,0.575,0.544,�k,5.6,��
2022/09/08,11:00,0.568,0.800,0.511,0.985,0.698,0.330,0.576,0.545,�k,5.5,�L
2022/09/08,11:10,0.570,0.799,0.512,0.982,0.698,0.329,0.576,0.546,�k�k��,4.5,�L
2022/09/08,11:20,0.570,0.797,0.510,0.983,0.698,0.330,0.577,0.545,�k�k��,4.3,�L
2022/09/08,11:30,0.570,0.798,0.511,0.984,0.700,0.331,0.576,0.546,�k�k��,4.6,�L
2022/09/08,11:40,0.569,0.800,0.511,0.984,0.698,0.331,0.576,0.545,�k�k��,4.8,�L
2022/09/08,11:50,0.569,0.801,0.512,0.984,0.699,0.331,0.577,0.546,�k�k��,5.6,�L
2022/09/08,12:00,0.569,0.803,0.512,0.984,0.697,0.331,0.577,0.546,�k�k��,4.7,�L
2022/09/08,12:10,0.569,0.804,0.512,0.985,0.700,0.331,0.576,0.545,�k�k��,4.8,��
2022/09/08,12:20,0.571,0.803,0.513,0.984,0.700,0.330,0.576,0.547,�k�k��,5.7,��
2022/09/08,12:30,0.569,0.804,0.514,0.985,0.700,0.331,0.578,0.545,�k�k��,4.2,��
2022/09/08,12:40,0.570,0.804,0.515,0.987,0.701,0.331,0.576,0.547,�k�k��,5.6,��
2022/09/08,12:50,0.569,0.804,0.515,0.986,0.702,0.332,0.577,0.546,�k�k��,5.2,��
2022/09/08,13:00,0.572,0.804,0.514,0.988,0.703,0.331,0.577,0.547,�k�k��,4.8,��
2022/09/08,13:10,0.572,0.804,0.515,0.986,0.703,0.331,0.577,0.545,�k�k��,4.7,��
2022/09/08,13:20,0.572,0.805,0.514,0.986,0.701,0.331,0.578,0.546,�k�k��,6.1,��
2022/09/08,13:30,0.572,0.802,0.514,0.987,0.702,0.331,0.577,0.545,�k,5.2,��
2022/09/08,13:40,0.569,0.803,0.514,0.987,0.703,0.332,0.578,0.546,�k,5.4,��
2022/09/08,13:50,0.568,0.805,0.513,0.987,0.703,0.333,0.578,0.546,�k,5.9,��
2022/09/08,14:00,0.569,0.804,0.514,0.983,0.703,0.331,0.578,0.547,�k�k��,5.6,��
2022/09/08,14:10,0.569,0.805,0.512,0.986,0.703,0.330,0.577,0.547,�k�k��,6.4,��
2022/09/08,14:20,0.570,0.806,0.511,0.989,0.702,0.332,0.578,0.546,�k,6.6,��
2022/09/08,14:30,0.567,0.807,0.510,0.987,0.701,0.332,0.578,0.549,�k,4.6,��
2022/09/08,14:40,0.570,0.807,0.511,0.988,0.704,0.333,0.578,0.546,�k,4.5,��
2022/09/08,14:50,0.570,0.806,0.515,0.988,0.703,0.331,0.579,0.547,�k�k��,5.7,�L
2022/09/08,15:00,0.572,0.806,0.514,0.982,0.703,0.331,0.577,0.545,�k,6.2,�L
2022/09/08,15:10,0.570,0.805,0.515,0.985,0.702,0.331,0.579,0.547,�k,5.6,�L
2022/09/08,15:20,0.569,0.807,0.514,0.982,0.704,0.332,0.579,0.547,�k,5.2,�L
2022/09/08,15:30,0.572,0.806,0.515,0.989,0.702,0.332,0.579,0.548,�k,5.8,�L
2022/09/08,15:40,0.570,0.809,0.516,0.987,0.703,0.333,0.578,0.547,�k,5.5,�L
2022/09/08,15:50,0.573,0.809,0.515,0.989,0.706,0.333,0.578,0.548,�k�k��,6.3,�L
2022/09/08,16:00,0.574,0.809,0.517,0.990,0.704,0.334,0.579,0.547,�k,5.7,�L
2022/09/08,16:10,0.576,0.810,0.517,0.988,0.704,0.334,0.579,0.548,�k,5.5,�L
2022/09/08,16:20,0.576,0.810,0.515,0.993,0.704,0.332,0.578,0.548,�k�k��,5.3,�L
2022/09/08,16:30,0.577,0.811,0.518,0.992,0.704,0.333,0.579,0.547,�k�k��,4.5,�L
2022/09/08,16:40,0.579,0.812,0.518,0.991,0.706,0.334,0.577,0.548,�k�k��,4.5,�L
2022/09/08,16:50,0.580,0.810,0.518,0.993,0.707,0.335,0.578,0.549,�k�k��,4.9,�L
2022/09/08,17:00,0.580,0.812,0.518,0.993,0.705,0.334,0.579,0.548,�k�k��,4.7,�L
2022/09/08,17:10,0.578,0.809,0.518,0.991,0.707,0.336,0.577,0.548,�k�k��,4.6,�L
2022/09/08,17:20,0.581,0.811,0.520,0.992,0.706,0.334,0.578,0.548,�k��,5.1,�L
2022/09/08,17:30,0.580,0.808,0.521,0.992,0.705,0.335,0.577,0.549,�k�k��,5.3,�L
2022/09/08,17:40,0.578,0.808,0.518,0.991,0.703,0.335,0.576,0.548,�k��,5.5,�L
2022/09/08,17:50,0.579,0.806,0.517,0.990,0.700,0.334,0.577,0.546,�k��,5.7,�L
2022/09/08,18:00,0.578,0.804,0.513,0.989,0.700,0.334,0.576,0.546,�k�k��,5.2,�L
2022/09/08,18:10,0.576,0.800,0.515,0.987,0.698,0.334,0.575,0.546,�k�k��,5.2,�L
2022/09/08,18:20,0.577,0.802,0.515,0.984,0.697,0.335,0.575,0.545,�k�k��,5.1,�L
2022/09/08,18:30,0.577,0.798,0.514,0.984,0.696,0.334,0.576,0.544,�k�k��,4.8,�L
2022/09/08,18:40,0.573,0.799,0.511,0.983,0.698,0.334,0.573,0.545,�k�k��,4.4,�L
2022/09/08,18:50,0.573,0.799,0.512,0.983,0.697,0.332,0.575,0.543,�k�k��,3.7,�L
2022/09/08,19:00,0.573,0.801,0.515,0.981,0.699,0.333,0.574,0.543,�k�k��,4.5,�L
2022/09/08,19:10,0.572,0.800,0.515,0.982,0.698,0.332,0.576,0.545,�k�k��,4.7,�L
2022/09/08,19:20,0.571,0.800,0.513,0.980,0.698,0.332,0.576,0.544,�k,4.8,�L
2022/09/08,19:30,0.571,0.799,0.514,0.982,0.699,0.332,0.576,0.545,�k,4.5,�L
2022/09/08,19:40,0.571,0.800,0.514,0.982,0.697,0.333,0.576,0.545,�k,4.0,�L
2022/09/08,19:50,0.572,0.800,0.512,0.982,0.699,0.332,0.575,0.546,�k,3.8,�L
2022/09/08,20:00,0.571,0.798,0.514,0.982,0.698,0.332,0.574,0.547,�k,4.2,�L
2022/09/08,20:10,0.572,0.801,0.514,0.983,0.698,0.332,0.574,0.547,�k�k��,4.3,�L
2022/09/08,20:20,0.574,0.800,0.512,0.982,0.698,0.333,0.575,0.546,�k,4.0,�L
2022/09/08,20:30,0.574,0.803,0.513,0.981,0.699,0.332,0.576,0.546,�k,4.6,�L
2022/09/08,20:40,0.574,0.801,0.513,0.981,0.697,0.332,0.575,0.545,�k,4.0,��
2022/09/08,20:50,0.574,0.802,0.513,0.981,0.698,0.332,0.576,0.548,�k,3.9,��
2022/09/08,21:00,0.573,0.801,0.513,0.981,0.698,0.333,0.576,0.547,�k,3.8,��
2022/09/08,21:10,0.574,0.801,0.513,0.982,0.699,0.331,0.575,0.547,�k,4.4,��
2022/09/08,21:20,0.573,0.802,0.514,0.982,0.699,0.332,0.574,0.547,�k,4.6,��
2022/09/08,21:30,0.573,0.803,0.513,0.983,0.700,0.331,0.577,0.547,�k,4.3,��
2022/09/08,21:40,0.572,0.805,0.511,0.981,0.699,0.333,0.577,0.547,�k�k��,4.4,��
2022/09/08,21:50,0.574,0.802,0.512,0.983,0.700,0.332,0.576,0.546,�k�k��,4.8,��
2022/09/08,22:00,0.574,0.801,0.513,0.983,0.699,0.331,0.577,0.547,�k�k��,4.9,��
2022/09/08,22:10,0.574,0.801,0.514,0.983,0.699,0.332,0.575,0.548,�k�k��,4.6,��
2022/09/08,22:20,0.573,0.802,0.514,0.983,0.700,0.333,0.576,0.547,�k�k��,5.1,��
2022/09/08,22:30,0.572,0.803,0.514,0.984,0.700,0.332,0.576,0.546,�k�k��,5.2,��
2022/09/08,22:40,0.573,0.804,0.514,0.982,0.698,0.331,0.574,0.546,�k�k��,4.7,��
2022/09/08,22:50,0.572,0.802,0.513,0.986,0.701,0.332,0.576,0.546,�k�k��,5.0,��
2022/09/08,23:00,0.574,0.805,0.514,0.984,0.702,0.332,0.576,0.547,�k�k��,4.8,�L
2022/09/08,23:10,0.572,0.803,0.512,0.983,0.700,0.333,0.576,0.546,�k�k��,4.5,�L
2022/09/08,23:20,0.574,0.803,0.513,0.985,0.700,0.333,0.576,0.548,�k�k��,4.6,�L
2022/09/08,23:30,0.574,0.804,0.515,0.984,0.701,0.333,0.576,0.547,�k�k��,5.5,�L
2022/09/08,23:40,0.575,0.805,0.515,0.985,0.701,0.331,0.575,0.545,�k�k��,5.0,�L
2022/09/08,23:50,0.573,0.804,0.514,0.985,0.701,0.333,0.575,0.549,�k�k��,5.9,�L
